Sanford, ME

1:43 AM EST on January 24, 2018 (GMT -0500)
Sanford Regional

Weather History for KSFM - November, 2011

Change the Weather History Date:

Monday, November 28, 2011

  Actual Average Record
Temperature  
Mean Temperature 52 °F -  
Max Temperature 62 °F 41 °F 62 °F (2011)
Min Temperature 42 °F 24 °F 3 °F (1996)
Degree Days  
Heating Degree Days 13    
Growing Degree Days 2 (Base 50)    
Moisture  
Dew Point 48 °F    
Average Humidity 86    
Maximum Humidity 100    
Minimum Humidity 68    
Precipitation  
Precipitation 0.00 in - - ()
Sea Level Pressure  
Sea Level Pressure 30.04 in    
Wind  
Wind Speed 4 mph (SW)    
Max Wind Speed 12 mph    
Max Gust Speed 16 mph    
Visibility 8 miles    
Events      
Averages and records for this station are not official NWS values.
T = Trace of Precipitation, MM = Missing Value Source: NWS Daily Summary

Daily Weather History Graph

Daily Weather History Graph

Search for Another Location

Airport or City:

Trip Planner

Search our weather history database for the weather conditions in past years. The results will help you decide how hot, cold, wet, or windy it might be!

Date:

Astronomy

Nov. 28, 2011 Rise Set
Actual Time 6:51 AM EST 4:09 PM EST
Civil Twilight 6:20 AM EST 4:41 PM EST
Nautical Twilight 5:44 AM EST 5:16 PM EST
Astronomical Twilight 5:10 AM EST 5:50 PM EST
Moon 9:58 AM EST (11/28) 7:54 PM EST (11/28)
Length of Visible Light 10h 21m
Length of Day
9h 17m
Waxing Crescent, 15% of the Moon is Illuminated
Nov 28
Waxing Crescent
Dec 2
First Quarter
Dec 10
Full
Dec 17
Last Quarter
Dec 24
New

Hourly Weather History & Observations

Time (EST) Temp. Windchill Dew Point Humidity Pressure Visibility Wind Dir Wind Speed Gust Speed Precip Events Conditions
12:15 AM 42.8 °F - 42.8 °F 100% 30.06 in 0.2 mi Calm Calm - N/A   Overcast
12:35 AM 42.8 °F - 41.0 °F 93% 30.06 in 0.2 mi Calm Calm - N/A   Overcast
12:55 AM 42.8 °F - 42.8 °F 100% 30.06 in 0.2 mi Calm Calm - N/A   Overcast
1:15 AM 44.6 °F 41.4 °F 44.6 °F 100% 30.05 in 0.8 mi SW 5.8 mph - N/A   Overcast
1:35 AM 46.4 °F 44.3 °F 44.6 °F 93% 30.06 in 1.0 mi SW 4.6 mph - N/A   Overcast
1:55 AM 46.4 °F 44.3 °F 44.6 °F 93% 30.05 in 1.0 mi SW 4.6 mph - N/A   Overcast
2:15 AM 46.4 °F 43.5 °F 44.6 °F 93% 30.05 in 1.5 mi SSW 5.8 mph - N/A   Overcast
2:35 AM 46.4 °F 43.5 °F 44.6 °F 93% 30.04 in 1.5 mi SSW 5.8 mph - N/A   Overcast
2:55 AM 46.4 °F 43.5 °F 46.4 °F 100% 30.03 in 2.0 mi SSW 5.8 mph - N/A   Overcast
3:15 AM 46.4 °F 44.3 °F 44.6 °F 93% 30.03 in 1.8 mi SSW 4.6 mph - N/A   Overcast
3:35 AM 46.4 °F 45.2 °F 46.4 °F 100% 30.03 in 2.5 mi SSW 3.5 mph - N/A   Overcast
3:55 AM 46.4 °F 45.2 °F 44.6 °F 93% 30.02 in 2.5 mi SSW 3.5 mph - N/A   Overcast
4:15 AM 46.4 °F - 44.6 °F 93% 30.02 in 3.0 mi Calm Calm - N/A   Overcast
4:35 AM 46.4 °F 43.5 °F 46.4 °F 100% 30.02 in 4.0 mi SSW 5.8 mph - N/A   Mostly Cloudy
4:55 AM 46.4 °F 44.3 °F 46.4 °F 100% 30.02 in 5.0 mi SW 4.6 mph - N/A   Scattered Clouds
5:15 AM 46.4 °F 44.3 °F 46.4 °F 100% 30.02 in 6.0 mi SSW 4.6 mph - N/A   Clear
5:35 AM 46.4 °F 44.3 °F 46.4 °F 100% 30.02 in 5.0 mi SW 4.6 mph - N/A   Clear
5:55 AM 48.2 °F - 46.4 °F 93% 30.02 in 10.0 mi SSW 5.8 mph - N/A   Clear
6:15 AM 48.2 °F - 46.4 °F 93% 30.02 in 10.0 mi SSW 8.1 mph - N/A   Clear
6:35 AM 48.2 °F - 48.2 °F 100% 30.02 in 10.0 mi SW 6.9 mph - N/A   Clear
6:55 AM 50.0 °F - 48.2 °F 94% 30.02 in 10.0 mi SSW 6.9 mph - N/A   Clear
7:15 AM 50.0 °F - 46.4 °F 87% 30.02 in 10.0 mi SSW 8.1 mph - N/A   Clear
7:35 AM 51.8 °F - 48.2 °F 88% 30.03 in 10.0 mi SSW 9.2 mph - N/A   Clear
7:55 AM 51.8 °F - 48.2 °F 88% 30.03 in 10.0 mi SSW 9.2 mph - N/A   Clear
8:15 AM 51.8 °F - 48.2 °F 88% 30.03 in 10.0 mi SSW 8.1 mph - N/A   Clear
8:35 AM 51.8 °F - 48.2 °F 88% 30.03 in 10.0 mi SSW 9.2 mph - N/A   Clear
8:55 AM 53.6 °F - 48.2 °F 82% 30.03 in 10.0 mi SSW 6.9 mph - N/A   Clear
9:15 AM 53.6 °F - 50.0 °F 88% 30.03 in 10.0 mi SW 6.9 mph - N/A   Clear
9:35 AM 53.6 °F - 51.8 °F 94% 30.03 in 10.0 mi SSW 5.8 mph - N/A   Clear
9:55 AM 53.6 °F - 50.0 °F 88% 30.03 in 10.0 mi SSW 9.2 mph - N/A   Clear
10:15 AM 55.4 °F - 51.8 °F 88% 30.04 in 10.0 mi SSW 5.8 mph - N/A   Clear
10:35 AM 55.4 °F - 51.8 °F 88% 30.03 in 10.0 mi SSW 6.9 mph - N/A   Clear
10:55 AM 57.2 °F - 51.8 °F 82% 30.03 in 10.0 mi SW 6.9 mph - N/A   Clear
11:15 AM 57.2 °F - 51.8 °F 82% 30.02 in 10.0 mi SSW 4.6 mph - N/A   Clear
11:35 AM 60.8 °F - 53.6 °F 77% 30.02 in 10.0 mi SW 11.5 mph 16.1 mph N/A   Clear
12:15 PM 62.6 °F - 53.6 °F 72% 30.03 in 10.0 mi SW 11.5 mph - N/A   Clear
12:55 PM 62.6 °F - 51.8 °F 68% 30.02 in 10.0 mi SW 8.1 mph 16.1 mph N/A   Clear
1:15 PM 62.6 °F - 51.8 °F 68% 30.02 in 10.0 mi SW 9.2 mph - N/A   Clear
1:35 PM 62.6 °F - 51.8 °F 68% 30.01 in 10.0 mi WSW 10.4 mph - N/A   Clear
2:15 PM 62.6 °F - 51.8 °F 68% 30.02 in 10.0 mi SW 8.1 mph 16.1 mph N/A   Clear
2:35 PM 62.6 °F - 51.8 °F 68% 30.02 in 10.0 mi SW 4.6 mph - N/A   Clear
2:55 PM 62.6 °F - 51.8 °F 68% 30.03 in 10.0 mi SW 4.6 mph - N/A   Clear
3:15 PM 62.6 °F - 51.8 °F 68% 30.03 in 10.0 mi SW 3.5 mph - N/A   Mostly Cloudy
3:35 PM 60.8 °F - 51.8 °F 72% 30.03 in 10.0 mi SW 3.5 mph - N/A   Overcast
3:55 PM 60.8 °F - 51.8 °F 72% 30.05 in 10.0 mi SW 5.8 mph - N/A   Overcast
4:15 PM 60.8 °F - 51.8 °F 72% 30.05 in 10.0 mi SSW 5.8 mph - N/A   Overcast
4:35 PM 60.8 °F - 51.8 °F 72% 30.05 in 10.0 mi SW 5.8 mph - N/A   Overcast
4:55 PM 60.8 °F - 50.0 °F 68% 30.05 in 10.0 mi SSW 5.8 mph - N/A   Scattered Clouds
5:15 PM 59.0 °F - 50.0 °F 72% 30.05 in 10.0 mi SSW 3.5 mph - N/A   Clear
5:35 PM 57.2 °F - 50.0 °F 77% 30.05 in 10.0 mi SW 3.5 mph - N/A   Clear
5:55 PM 57.2 °F - 50.0 °F 77% 30.06 in 10.0 mi South 3.5 mph - N/A   Clear
6:15 PM 53.6 °F - 48.2 °F 82% 30.06 in 10.0 mi SW 4.6 mph - N/A   Clear
6:35 PM 53.6 °F - 48.2 °F 82% 30.07 in 10.0 mi SSW 3.5 mph - N/A   Clear
6:55 PM 51.8 °F - 46.4 °F 82% 30.08 in 10.0 mi SSW 3.5 mph - N/A   Clear
7:15 PM 48.2 °F - 46.4 °F 93% 30.08 in 10.0 mi Calm Calm - N/A   Mostly Cloudy
7:35 PM 48.2 °F - 46.4 °F 93% 30.08 in 10.0 mi Calm Calm - N/A   Scattered Clouds
7:55 PM 48.2 °F - 46.4 °F 93% 30.08 in 10.0 mi Calm Calm - N/A   Partly Cloudy
8:15 PM 46.4 °F 45.2 °F 44.6 °F 93% 30.08 in 10.0 mi West 3.5 mph - N/A   Clear
9:15 PM 46.4 °F - 44.6 °F 93% 30.10 in 10.0 mi Calm Calm - N/A   Clear
9:35 PM 46.4 °F - 44.6 °F 93% 30.10 in 10.0 mi Calm Calm - N/A   Clear
9:55 PM 46.4 °F - 44.6 °F 93% 30.10 in 10.0 mi Calm Calm - N/A   Clear
10:15 PM 44.6 °F - 44.6 °F 100% 30.10 in 10.0 mi Calm Calm - N/A   Mostly Cloudy
10:35 PM 46.4 °F - 44.6 °F 93% 30.10 in 10.0 mi Calm Calm - N/A   Overcast
10:55 PM 46.4 °F - 44.6 °F 93% 30.11 in 10.0 mi Calm Calm - N/A   Overcast
11:15 PM 44.6 °F - 42.8 °F 93% 30.10 in 10.0 mi Calm Calm - N/A   Scattered Clouds
11:35 PM 44.6 °F 42.2 °F 41.0 °F 87% 30.10 in 1.8 mi West 4.6 mph - N/A   Scattered Clouds